Waarnemingen

Advertentie
Mijn weer
Finisterre, Spanje (8040): temperatuur & dauwpunt: 21.04.2018 08:00:00 - 27.04.2018 08:00:00 (CEST)Finisterre, Spanje (8040): windsnelheid & windstoten: 21.04.2018 08:00:00 - 27.04.2018 08:00:00 (CEST)Finisterre, Spanje (8040): windrichting: 21.04.2018 08:00:00 - 27.04.2018 08:00:00 (CEST)Finisterre, Spanje (8040): luchtdruk: 21.04.2018 08:00:00 - 27.04.2018 08:00:00 (CEST)Finisterre, Spanje (8040): zicht: 21.04.2018 08:00:00 - 27.04.2018 08:00:00 (CEST)Finisterre, Spanje (8040): Zonneschijnduur: 21.04.2018 08:00:00 - 27.04.2018 08:00:00 (CEST)Finisterre, Spanje (8040): neerslag: 21.04.2018 08:00:00 - 27.04.2018 08:00:00 (CEST)
Datum & Tijd tt [°C] td [°C] ff [km/u] ff [kn] fx [km/u] fx [kn] dd ppp [hPa] vv [km] sd [min] rr [mm]
27.04.2018 08:00:00 - - - - - - - - - - -
27.04.2018 07:00:00 10,0 6,5 16 9 44 24 NNW 1016,8 11 0 0,0
27.04.2018 06:00:00 9,9 7,0 17 9 38 21 NNW 1016,7 12 0 0,0
27.04.2018 05:00:00 10,2 7,8 18 10 43 23 NNW 1016,4 11 0 0,0
27.04.2018 04:00:00 10,3 9,0 17 9 44 24 NNW 1016,4 11 0 0,0
27.04.2018 03:00:00 11,4 10,3 34 18 49 26 WNW 1016,8 1,0 0 0,0
27.04.2018 02:00:00 10,6 8,9 20 11 27 14 WZW 1017,4 13 0 -
27.04.2018 01:00:00 9,6 7,8 13 7 18 10 ZZW 1017,7 15 0 0,0
27.04.2018 00:00:00 9,9 8,0 5 3 28 15 W 1018,1 12 0 0,0
26.04.2018 23:00:00 10,4 8,5 16 9 31 17 NNW 1018,1 12 0 0,0
26.04.2018 22:00:00 10,6 8,5 24 13 47 25 N 1017,1 10 9 0,0
26.04.2018 21:00:00 11,5 8,9 32 17 44 24 N 1017,0 10 60 0,0
26.04.2018 20:00:00 12,5 8,9 26 14 64 34 NNO 1016,9 11 55 -
26.04.2018 19:00:00 11,9 8,5 40 21 61 33 N 1017,2 11 60 0,0
26.04.2018 18:00:00 12,6 8,9 34 19 63 34 N 1017,5 17 60 0,0
26.04.2018 17:00:00 12,7 8,8 35 19 59 32 NNO 1017,8 12 60 0,0
26.04.2018 16:00:00 12,4 8,3 41 22 62 34 NNO 1018,5 12 60 0,0
26.04.2018 15:00:00 12,7 8,4 35 19 53 29 NNO 1019,0 13 58 0,0
26.04.2018 14:00:00 13,2 8,3 31 17 46 25 NNO 1019,7 15 60 -
26.04.2018 13:00:00 13,6 7,6 26 14 48 26 NNO 1020,5 12 60 0,0
26.04.2018 12:00:00 13,5 7,7 23 12 45 24 NO 1021,4 14 60 0,0
26.04.2018 11:00:00 12,3 7,1 28 15 55 30 NO 1021,9 14 53 0,0
26.04.2018 10:00:00 11,1 7,0 32 18 49 26 NO 1022,5 14 53 0,0
26.04.2018 09:00:00 10,2 7,3 31 17 50 27 NO 1022,7 13 45 0,0
26.04.2018 08:00:00 9,4 7,1 28 15 45 24 NO 1022,7 10 0 -
26.04.2018 07:00:00 9,5 7,3 32 18 49 26 NNO 1022,5 10 0 0,0
26.04.2018 06:00:00 9,2 7,1 27 14 38 20 NO 1023,3 10 0 0,0
26.04.2018 05:00:00 9,3 6,7 27 15 43 23 NO 1023,7 11 0 0,0
26.04.2018 04:00:00 9,5 7,1 29 16 44 24 NO 1024,2 11 0 0,0
26.04.2018 03:00:00 9,7 7,3 29 16 45 25 NO 1024,5 11 0 0,0
26.04.2018 02:00:00 9,8 7,4 29 15 46 25 NO 1024,9 11 0 -
26.04.2018 01:00:00 9,9 7,6 28 15 48 26 NO 1024,8 11 0 0,0
26.04.2018 00:00:00 10,1 7,7 32 18 50 27 NO 1025,2 11 0 0,0
25.04.2018 23:00:00 10,5 7,8 30 16 50 27 NNO 1025,0 11 0 0,0
25.04.2018 22:00:00 10,7 8,0 34 18 60 33 NNO 1024,8 11 0 0,0
25.04.2018 21:00:00 11,5 8,0 35 19 60 33 NNO 1024,0 12 56 0,0
25.04.2018 20:00:00 12,2 7,6 36 20 61 33 NNO 1023,6 13 55 -
25.04.2018 19:00:00 13,0 7,4 33 18 57 31 NNO 1023,6 13 60 0,0
25.04.2018 18:00:00 13,4 6,7 38 21 59 32 NNO 1023,5 12 60 0,0
25.04.2018 17:00:00 13,6 7,4 37 20 61 33 NNO 1023,7 15 60 0,0
25.04.2018 16:00:00 14,1 6,7 36 19 60 32 NNO 1024,2 18 60 0,0
25.04.2018 15:00:00 13,5 7,7 34 18 66 35 NNO 1024,1 16 56 0,0
25.04.2018 14:00:00 12,8 7,8 39 21 66 36 NNO 1024,0 16 60 -
25.04.2018 13:00:00 12,2 8,5 41 22 64 35 NNO 1023,9 13 53 0,0
25.04.2018 12:00:00 10,8 9,7 33 18 60 33 NNO 1024,5 16 12 0,0
25.04.2018 11:00:00 10,6 9,8 36 20 56 30 NNO - - 0 0,0
25.04.2018 10:00:00 10,8 10,0 32 18 61 33 NNO 1023,1 0,2 0 0,0
25.04.2018 09:00:00 11,3 10,4 26 14 40 22 NO 1022,4 8 0 0,0
25.04.2018 08:00:00 10,8 9,7 29 16 41 22 NO 1021,8 11 0 -
25.04.2018 07:00:00 11,0 9,8 26 14 40 22 NO 1021,2 14 0 0,0
25.04.2018 06:00:00 11,2 9,8 27 15 44 24 NNO 1020,8 12 0 0,0
25.04.2018 05:00:00 11,0 9,8 26 14 42 23 NNO 1020,6 13 0 0,0
25.04.2018 04:00:00 11,0 9,4 30 16 49 26 NNO 1020,5 14 0 0,0
25.04.2018 03:00:00 10,8 9,2 27 14 42 23 NO 1021,1 14 0 0,0
25.04.2018 02:00:00 10,4 8,8 30 16 42 23 NNO 1020,9 14 0 -
25.04.2018 01:00:00 10,4 8,8 30 16 46 25 NO 1021,1 14 0 0,0
25.04.2018 00:00:00 11,0 9,6 23 13 53 29 NNO 1021,2 9 0 0,0
24.04.2018 23:00:00 11,1 9,8 35 19 55 30 NNO 1020,4 9 0 0,0
24.04.2018 22:00:00 11,3 9,9 38 21 58 31 NNO 1019,4 9 13 0,0
24.04.2018 21:00:00 12,3 9,8 27 15 56 31 NNO 1019,1 14 60 0,0
24.04.2018 20:00:00 13,4 9,8 36 19 55 30 NNO 1018,4 13 56 -
24.04.2018 19:00:00 13,1 10,4 38 20 60 32 NNO 1018,2 12 60 0,0
24.04.2018 18:00:00 13,5 10,6 40 21 60 33 NNO 1018,1 12 60 0,0
24.04.2018 17:00:00 14,6 10,8 39 21 70 38 NNO 1017,9 15 60 0,0
24.04.2018 16:00:00 13,5 11,0 41 22 72 39 NNO 1018,0 12 27 0,0
24.04.2018 15:00:00 12,7 10,9 47 25 74 40 NNO 1018,0 9 9 0,0
24.04.2018 14:00:00 13,0 11,2 45 24 69 38 NNO 1018,2 9 41 -
24.04.2018 13:00:00 13,9 11,4 45 24 59 32 NNO 1018,1 12 60 0,0
24.04.2018 12:00:00 13,7 11,2 33 18 53 29 NNO 1018,2 9 60 0,0
24.04.2018 11:00:00 13,0 10,9 41 22 61 33 NO 1017,9 10 59 0,0
24.04.2018 10:00:00 11,8 10,5 41 22 55 30 NO 1018,0 7 56 0,0
24.04.2018 09:00:00 11,1 10,0 42 23 62 33 NO 1017,3 5 6 0,0
24.04.2018 08:00:00 10,8 9,9 39 21 54 29 NO 1016,9 4,3 0 -
24.04.2018 07:00:00 10,9 9,8 36 19 58 31 NO 1016,3 5 0 0,0
24.04.2018 06:00:00 11,0 9,9 34 19 54 29 NO 1016,3 6 0 0,0
24.04.2018 05:00:00 11,3 10,2 41 22 60 33 NO 1016,4 7 0 0,0
24.04.2018 04:00:00 11,3 10,4 41 22 63 34 NO 1016,8 5 0 0,0
24.04.2018 03:00:00 11,4 10,4 43 23 66 36 NO 1017,1 4,9 0 0,0
24.04.2018 02:00:00 11,4 10,4 44 24 69 37 NNO 1017,3 4,4 0 -
24.04.2018 01:00:00 11,3 10,4 39 21 55 30 NNO 1018,1 4,1 0 0,0
24.04.2018 00:00:00 11,3 10,2 40 21 58 31 NNO 1018,4 5 0 0,0
23.04.2018 23:00:00 11,3 10,0 33 18 59 32 NO 1018,8 8 0 0,0
23.04.2018 22:00:00 11,3 9,9 40 22 58 31 ONO 1017,7 10 3 0,0
23.04.2018 21:00:00 11,9 9,9 37 20 69 37 ONO 1017,2 10 56 0,0
23.04.2018 20:00:00 13,0 10,4 40 22 66 36 NO 1016,7 10 56 -
23.04.2018 19:00:00 15,2 11,0 33 18 50 27 NNO 1016,8 12 60 0,0
23.04.2018 18:00:00 16,5 11,2 24 13 50 27 NNO 1017,0 11 60 0,0
23.04.2018 17:00:00 16,2 11,6 29 16 46 25 NO 1017,1 12 60 0,0
23.04.2018 16:00:00 16,1 11,4 29 16 54 29 NO 1017,4 12 60 0,0
23.04.2018 15:00:00 17,0 11,7 32 18 46 25 NO 1017,3 10 52 0,0
23.04.2018 14:00:00 17,5 12,2 29 16 50 27 NO 1017,6 11 60 -
23.04.2018 13:00:00 16,4 11,3 30 16 46 25 NO 1018,3 16 60 0,0
23.04.2018 12:00:00 15,4 10,4 29 16 50 27 NO 1018,7 13 60 0,0
23.04.2018 11:00:00 13,4 9,8 36 19 53 29 NO 1018,6 14 58 0,0
23.04.2018 10:00:00 12,0 9,6 37 20 52 28 NO 1018,4 11 57 0,0
23.04.2018 09:00:00 11,1 9,0 37 20 60 32 NO 1018,3 14 34 0,0
23.04.2018 08:00:00 10,3 8,4 39 21 54 29 ONO 1018,2 13 0 -
23.04.2018 07:00:00 10,4 8,7 27 15 54 29 ONO 1017,9 14 0 0,0
23.04.2018 06:00:00 10,7 8,9 37 20 64 35 NO 1017,5 13 0 0,0
23.04.2018 05:00:00 10,7 8,8 32 17 58 31 NO 1017,9 13 0 0,0
23.04.2018 04:00:00 10,7 8,8 43 23 68 37 NO 1017,7 13 0 0,0
23.04.2018 03:00:00 10,7 8,7 46 25 65 35 NO 1017,7 13 0 0,0
23.04.2018 02:00:00 10,7 8,7 42 23 63 34 ONO 1017,9 15 0 -
23.04.2018 01:00:00 10,5 8,7 39 21 56 31 ONO 1017,9 15 0 0,0
23.04.2018 00:00:00 10,6 8,5 39 21 58 31 ONO 1018,1 15 0 0,0
22.04.2018 23:00:00 10,8 8,4 39 21 59 32 ONO 1017,8 15 0 0,0
22.04.2018 22:00:00 10,7 8,3 36 20 59 32 NO 1017,0 14 0 0,0
22.04.2018 21:00:00 11,5 8,5 37 20 61 33 NO 1016,1 13 57 0,0
22.04.2018 20:00:00 13,0 8,9 36 19 55 30 NNO 1015,6 16 56 -
22.04.2018 19:00:00 12,9 10,4 37 20 60 33 NNO 1015,3 11 60 0,0
22.04.2018 18:00:00 13,3 10,6 31 17 55 30 NNO 1015,2 11 60 0,0
22.04.2018 17:00:00 12,6 10,5 33 18 50 27 N 1015,9 12 60 0,0
22.04.2018 16:00:00 12,5 10,8 26 14 40 22 N 1016,3 8 38 0,0
22.04.2018 15:00:00 12,8 11,2 26 14 36 19 NNO 1016,1 2,6 34 0,0
22.04.2018 14:00:00 13,0 11,6 22 12 34 18 NNO 1016,3 9 28 -
22.04.2018 13:00:00 12,5 11,2 24 13 41 22 N 1016,6 9 6 0,0
22.04.2018 12:00:00 12,0 10,9 19 11 29 16 N 1016,7 2,4 0 0,0
22.04.2018 11:00:00 12,1 11,1 12 7 25 13 N 1016,7 0,4 0 0,0
22.04.2018 10:00:00 11,7 10,6 16 8 23 12 N 1016,5 0,2 0 0,0
22.04.2018 09:00:00 11,9 10,8 12 6 18 10 N 1016,5 0,7 0 0,0
22.04.2018 08:00:00 12,2 10,3 8 5 16 8 N 1016,0 0,6 0 -
22.04.2018 07:00:00 12,8 11,0 9 5 11 6 ZZO 1015,6 14 0 0,0
22.04.2018 06:00:00 12,3 11,0 3 2 16 9 Z - - 0 0,0
22.04.2018 05:00:00 12,3 10,8 5 3 13 7 W 1016,5 0,5 0 0,0
22.04.2018 04:00:00 13,5 11,0 8 4 11 6 ZZW 1016,8 2,2 0 0,0
22.04.2018 03:00:00 13,7 11,2 6 4 17 9 ZZO 1017,1 12 0 0,0
22.04.2018 02:00:00 12,6 11,2 9 5 21 11 NNW 1016,8 10 0 -
22.04.2018 01:00:00 12,0 10,8 12 6 18 10 N 1017,0 0,8 0 0,0
22.04.2018 00:00:00 13,1 11,1 11 6 17 9 NW 1017,1 1,3 0 0,0
21.04.2018 23:00:00 13,5 11,0 5 3 23 12 ZW 1016,7 8 0 0,0
21.04.2018 22:00:00 13,5 11,0 15 8 21 11 WZW 1015,9 11 0 0,0
21.04.2018 21:00:00 14,1 11,1 8 4 21 12 ZW 1015,6 20 0 0,0
21.04.2018 20:00:00 14,9 11,9 16 9 28 15 Z 1015,4 7 0 -
21.04.2018 19:00:00 15,9 11,7 16 9 30 16 Z 1015,1 11 10 0,0
21.04.2018 18:00:00 17,7 12,1 22 12 38 20 ZZW 1014,9 13 23 0,0
21.04.2018 17:00:00 19,2 11,0 16 8 24 13 ZZW 1014,7 12 42 0,0
21.04.2018 16:00:00 20,3 11,2 14 8 22 12 ZZW 1014,5 11 41 0,0
21.04.2018 15:00:00 20,8 11,4 12 6 19 10 ZZO 1014,0 14 5 0,0
21.04.2018 14:00:00 20,5 10,3 11 6 23 12 Z 1014,2 15 0 -
21.04.2018 13:00:00 21,6 10,8 14 7 22 12 ZZO 1013,9 14 53 0,0
21.04.2018 12:00:00 22,0 12,0 11 6 16 9 ZZO 1013,9 13 60 0,0
21.04.2018 11:00:00 19,9 11,1 4 2 8 4 ONO 1013,9 18 60 0,0
21.04.2018 10:00:00 20,6 10,4 6 3 9 5 ZZW 1014,0 14 58 0,0
21.04.2018 09:00:00 19,4 8,7 8 4 13 7 ZZW 1013,8 14 27 0,0
21.04.2018 08:00:00 17,7 8,3 13 7 17 9 ZZO 1013,5 13 0 -

tt = temperatuur
td = dauwpunt
ff = windsnelheid
fx = windstoten
dd = windrichting
ppp = luchtdruk
vv = zicht
sd = Zonneschijnduur
rr = neerslag

Weerstations in de omgeving